When you browse on this site, cookies collect data to enhance your experience and personalize the content and advertising you see.
Visit our Privacy Policy to learn more. By continuing to use the site, you agree to this use of cookies and data.
  • In Spain
  • List of Countries
  • For 7 days
  • Water Temperature
  • Satellite Maps
  • Weather Map
  • Weather Widgets
  • user-avatar
    Login

    Hourly Weather Velika Gorica

    Today, 16 June, Sunday

    Time Temperature Precipitation Wind Pressure Humidity
    00:00 +22°C° 0 mm 0 mps 749 mmHg 76%
    01:00 +22°C° 0 mm 0 mps 749 mmHg 74%
    02:00 +21°C° 0 mm 0 mps 749 mmHg 76%
    03:00 +21°C° 0 mm 0 mps 748 mmHg 78%
    04:00 +22°C° 0 mm 1 mps 748 mmHg 80%
    05:00 +24°C° 0 mm 1 mps 749 mmHg 76%
    06:00 +25°C° 0 mm 1 mps 749 mmHg 71%
    07:00 +27°C° 0 mm 1 mps 749 mmHg 67%
    08:00 +28°C° 0 mm 1 mps 749 mmHg 63%
    09:00 +29°C° 0 mm 2 mps 749 mmHg 60%
    10:00 +31°C° 0 mm 2 mps 749 mmHg 56%
    11:00 +31°C° 0.3 mm 2 mps 749 mmHg 58%
    12:00 +31°C° 0.3 mm 3 mps 750 mmHg 61%
    13:00 +31°C° 0.3 mm 3 mps 750 mmHg 63%
    14:00 +31°C° 0.3 mm 3 mps 750 mmHg 62%
    15:00 +32°C° 0.3 mm 4 mps 749 mmHg 62%
    16:00 +32°C° 0.3 mm 4 mps 749 mmHg 61%
    17:00 +29°C° 1.5 mm 4 mps 750 mmHg 68%
    18:00 +27°C° 1.5 mm 3 mps 750 mmHg 75%
    19:00 +25°C° 1.5 mm 3 mps 751 mmHg 82%
    20:00 +24°C° 1.4 mm 3 mps 751 mmHg 84%
    21:00 +22°C° 1.4 mm 3 mps 751 mmHg 85%
    22:00 +21°C° 1.4 mm 3 mps 752 mmHg 86%
    23:00 +20°C° 0.1 mm 2 mps 752 mmHg 86%

    Tomorrow, 17 June, Monday

    Time Temperature Precipitation Wind Pressure Humidity
    00:00 +21°C° 0.1 mm 1 mps 752 mmHg 86%
    01:00 +20°C° 0.1 mm 1 mps 752 mmHg 86%
    02:00 +20°C° 0.1 mm 1 mps 752 mmHg 86%
    03:00 +20°C° 0.1 mm 1 mps 752 mmHg 86%
    04:00 +20°C° 0.1 mm 1 mps 752 mmHg 87%
    05:00 +20°C° 0.1 mm 1 mps 752 mmHg 86%
    06:00 +21°C° 0.1 mm 1 mps 752 mmHg 85%
    07:00 +20°C° 0.1 mm 2 mps 752 mmHg 84%
    08:00 +21°C° 0 mm 2 mps 752 mmHg 77%
    09:00 +24°C° 0 mm 3 mps 752 mmHg 69%
    10:00 +25°C° 0 mm 4 mps 753 mmHg 62%
    11:00 +25°C° 0 mm 3 mps 752 mmHg 61%
    12:00 +26°C° 0 mm 3 mps 752 mmHg 60%
    13:00 +27°C° 0 mm 3 mps 752 mmHg 59%
    14:00 +27°C° 0 mm 3 mps 752 mmHg 59%
    15:00 +27°C° 0 mm 3 mps 751 mmHg 60%
    16:00 +27°C° 0 mm 3 mps 751 mmHg 61%
    17:00 +26°C° 0.1 mm 3 mps 751 mmHg 66%
    18:00 +25°C° 0.1 mm 2 mps 751 mmHg 72%
    19:00 +25°C° 0.1 mm 2 mps 751 mmHg 77%
    20:00 +24°C° 0.6 mm 2 mps 751 mmHg 81%
    21:00 +23°C° 0.6 mm 2 mps 752 mmHg 85%
    22:00 +21°C° 0.6 mm 2 mps 752 mmHg 88%
    23:00 +20°C° 0.6 mm 2 mps 752 mmHg 90%

    Day after tomorrow, 18 June, Tuesday

    Time Temperature Precipitation Wind Pressure Humidity
    00:00 +21°C° 0.6 mm 1 mps 751 mmHg 91%
    01:00 +21°C° 0.6 mm 1 mps 751 mmHg 93%
    02:00 +20°C° 0.1 mm 1 mps 751 mmHg 93%
    03:00 +20°C° 0.1 mm 1 mps 751 mmHg 93%
    04:00 +19°C° 0.1 mm 1 mps 751 mmHg 94%
    05:00 +20°C° 0 mm 1 mps 751 mmHg 91%
    06:00 +21°C° 0 mm 1 mps 752 mmHg 88%
    07:00 +22°C° 0 mm 1 mps 752 mmHg 86%
    08:00 +24°C° 0 mm 1 mps 752 mmHg 78%
    09:00 +25°C° 0 mm 1 mps 752 mmHg 70%
    10:00 +27°C° 0 mm 1 mps 752 mmHg 62%
    11:00 +28°C° 0 mm 1 mps 751 mmHg 60%
    12:00 +28°C° 0 mm 1 mps 751 mmHg 59%
    13:00 +29°C° 0 mm 1 mps 751 mmHg 57%
    14:00 +29°C° 0 mm 1 mps 750 mmHg 56%
    15:00 +29°C° 0 mm 1 mps 750 mmHg 56%
    16:00 +30°C° 0 mm 1 mps 750 mmHg 56%
    17:00 +28°C° 0.1 mm 1 mps 749 mmHg 63%
    18:00 +27°C° 0.1 mm 1 mps 749 mmHg 71%
    19:00 +26°C° 0.1 mm 1 mps 749 mmHg 78%
    20:00 +22°C° 0 mm 0 mps 749 mmHg 81%
    21:00 +21°C° 0 mm 0 mps 750 mmHg 84%
    22:00 +20°C° 0 mm 0 mps 750 mmHg 87%
    23:00 +20°C° 0 mm 0 mps 750 mmHg 88%

    19 June, Wednesday

    Time Temperature Precipitation Wind Pressure Humidity
    00:00 +20°C° 0 mm 0 mps 749 mmHg 88%
    01:00 +20°C° 0 mm 0 mps 749 mmHg 89%
    02:00 +19°C° 0 mm 0 mps 749 mmHg 90%
    03:00 +19°C° 0 mm 0 mps 749 mmHg 91%
    04:00 +19°C° 0 mm 0 mps 749 mmHg 92%
    05:00 +20°C° 0 mm 0 mps 749 mmHg 87%
    06:00 +21°C° 0 mm 0 mps 749 mmHg 83%
    07:00 +23°C° 0 mm 0 mps 749 mmHg 78%
    08:00 +25°C° 0 mm 0 mps 749 mmHg 71%
    09:00 +29°C° 0 mm 1 mps 749 mmHg 63%
    10:00 +30°C° 0 mm 1 mps 749 mmHg 55%
    11:00 +31°C° 0 mm 1 mps 749 mmHg 49%
    12:00 +33°C° 0 mm 1 mps 748 mmHg 44%
    13:00 +34°C° 0 mm 1 mps 748 mmHg 38%
    14:00 +33°C° 0 mm 1 mps 748 mmHg 38%
    15:00 +33°C° 0 mm 1 mps 748 mmHg 39%
    16:00 +32°C° 0 mm 1 mps 747 mmHg 40%
    17:00 +31°C° 0 mm 1 mps 747 mmHg 48%
    18:00 +29°C° 0 mm 1 mps 747 mmHg 56%
    19:00 +27°C° 0 mm 1 mps 747 mmHg 64%
    20:00 +26°C° 0.4 mm 1 mps 748 mmHg 69%
    21:00 +24°C° 0.4 mm 1 mps 748 mmHg 74%
    22:00 +23°C° 0.4 mm 2 mps 748 mmHg 78%
    23:00 +22°C° 0.1 mm 1 mps 748 mmHg 82%

    20 June, Thursday

    Time Temperature Precipitation Wind Pressure Humidity
    00:00 +21°C° 0.1 mm 1 mps 748 mmHg 85%
    01:00 +20°C° 0.1 mm 1 mps 748 mmHg 88%
    02:00 +18°C° 0 mm 0 mps 748 mmHg 88%
    03:00 +18°C° 0 mm 0 mps 748 mmHg 89%
    04:00 +17°C° 0 mm 0 mps 748 mmHg 89%
    05:00 +19°C° 0 mm 0 mps 748 mmHg 85%
    06:00 +20°C° 0 mm 0 mps 748 mmHg 82%
    07:00 +23°C° 0 mm 1 mps 748 mmHg 78%
    08:00 +26°C° 0 mm 1 mps 748 mmHg 69%
    09:00 +28°C° 0 mm 1 mps 748 mmHg 60%
    10:00 +30°C° 0 mm 1 mps 749 mmHg 51%
    11:00 +31°C° 0 mm 1 mps 748 mmHg 47%
    12:00 +32°C° 0 mm 1 mps 748 mmHg 43%
    13:00 +34°C° 0 mm 1 mps 748 mmHg 39%
    14:00 +33°C° 0 mm 1 mps 748 mmHg 40%
    15:00 +33°C° 0 mm 1 mps 747 mmHg 41%
    16:00 +32°C° 0 mm 1 mps 747 mmHg 42%
    17:00 +31°C° 0 mm 1 mps 747 mmHg 50%
    18:00 +29°C° 0 mm 1 mps 747 mmHg 58%
    19:00 +28°C° 0 mm 1 mps 747 mmHg 66%
    20:00 +26°C° 0 mm 1 mps 747 mmHg 70%
    21:00 +25°C° 0 mm 1 mps 748 mmHg 73%
    22:00 +24°C° 0 mm 1 mps 748 mmHg 77%
    23:00 +23°C° 0 mm 1 mps 748 mmHg 79%

    21 June, Friday

    Time Temperature Precipitation Wind Pressure Humidity
    00:00 +22°C° 0 mm 1 mps 748 mmHg 81%
    01:00 +21°C° 0 mm 1 mps 748 mmHg 83%
    02:00 +21°C° 0 mm 1 mps 748 mmHg 82%
    03:00 +20°C° 0 mm 1 mps 748 mmHg 81%
    04:00 +20°C° 0 mm 1 mps 748 mmHg 80%
    05:00 +21°C° 0 mm 1 mps 748 mmHg 75%
    06:00 +23°C° 0 mm 1 mps 749 mmHg 71%
    07:00 +24°C° 0 mm 1 mps 749 mmHg 66%
    08:00 +26°C° 0 mm 1 mps 749 mmHg 61%
    09:00 +28°C° 0 mm 1 mps 749 mmHg 56%
    10:00 +30°C° 0 mm 1 mps 750 mmHg 50%
    11:00 +31°C° 0.2 mm 1 mps 750 mmHg 50%
    12:00 +31°C° 0.2 mm 1 mps 749 mmHg 50%
    13:00 +32°C° 0.2 mm 1 mps 749 mmHg 49%
    14:00 +31°C° 0.1 mm 1 mps 749 mmHg 50%
    15:00 +31°C° 0.1 mm 2 mps 749 mmHg 51%
    16:00 +30°C° 0.1 mm 3 mps 749 mmHg 53%
    17:00 +29°C° 0 mm 2 mps 749 mmHg 59%
    18:00 +28°C° 0 mm 2 mps 749 mmHg 65%
    19:00 +26°C° 0 mm 1 mps 749 mmHg 71%
    20:00 +25°C° 0 mm 1 mps 750 mmHg 75%
    21:00 +24°C° 0 mm 1 mps 750 mmHg 78%
    22:00 +23°C° 0 mm 1 mps 750 mmHg 81%
    23:00 +23°C° 0 mm 1 mps 750 mmHg 82%
    Show more